• In Czech Republic
  • List of Countries
  • For 7 days
  • Water Temperature
  • Satellite Maps
  • Weather Map
  • Weather Widgets
  • user-avatar
    Login

    Hourly Weather Kalat

    Today, 20 October, Saturday

    Time Temperature Precipitation Wind Pressure Humidity
    00:00 -9°C° 0 mm 2 mps 473 mmHg 64%
    01:00 -9°C° 0 mm 2 mps 472 mmHg 61%
    02:00 -9°C° 0 mm 2 mps 472 mmHg 59%
    03:00 -10°C° 0 mm 2 mps 472 mmHg 58%
    04:00 -10°C° 0 mm 2 mps 472 mmHg 56%
    05:00 -10°C° 0 mm 2 mps 472 mmHg 52%
    06:00 -9°C° 0 mm 2 mps 473 mmHg 51%
    07:00 -8°C° 0 mm 2 mps 474 mmHg 50%
    08:00 -7°C° 0 mm 2 mps 475 mmHg 49%
    09:00 -6°C° 0 mm 2 mps 475 mmHg 45%
    10:00 -2°C° 0 mm 1 mps 476 mmHg 41%
    11:00 -1°C° 0 mm 1 mps 477 mmHg 29%
    12:00 -1°C° 0 mm 1 mps 477 mmHg 33%
    13:00 0°C° 0 mm 1 mps 478 mmHg 37%
    14:00 0°C° 0 mm 1 mps 478 mmHg 41%
    15:00 -1°C° 0.1 mm 1 mps 477 mmHg 46%
    16:00 -2°C° 0.1 mm 1 mps 476 mmHg 50%
    17:00 -3°C° 0.1 mm 1 mps 475 mmHg 55%
    18:00 -4°C° 0.1 mm 1 mps 475 mmHg 56%
    19:00 -6°C° 0.1 mm 1 mps 475 mmHg 57%
    20:00 -7°C° 0.1 mm 1 mps 474 mmHg 58%
    21:00 -7°C° 0 mm 1 mps 474 mmHg 57%
    22:00 -7°C° 0 mm 1 mps 474 mmHg 57%
    23:00 -8°C° 0 mm 2 mps 474 mmHg 56%

    Tomorrow, 21 October, Sunday

    Time Temperature Precipitation Wind Pressure Humidity
    00:00 -8°C° 0 mm 2 mps 474 mmHg 57%
    01:00 -9°C° 0 mm 2 mps 473 mmHg 57%
    02:00 -9°C° 0 mm 2 mps 473 mmHg 57%
    03:00 -9°C° 0 mm 2 mps 473 mmHg 56%
    04:00 -9°C° 0 mm 2 mps 473 mmHg 56%
    05:00 -9°C° 0 mm 2 mps 473 mmHg 56%
    06:00 -9°C° 0 mm 2 mps 474 mmHg 54%
    07:00 -8°C° 0 mm 2 mps 474 mmHg 53%
    08:00 -6°C° 0 mm 1 mps 475 mmHg 51%
    09:00 -4°C° 0 mm 1 mps 476 mmHg 46%
    10:00 -2°C° 0 mm 1 mps 477 mmHg 41%
    11:00 -1°C° 0 mm 1 mps 478 mmHg 35%
    12:00 -1°C° 0 mm 1 mps 478 mmHg 37%
    13:00 0°C° 0 mm 1 mps 478 mmHg 39%
    14:00 0°C° 0 mm 1 mps 478 mmHg 41%
    15:00 -1°C° 0.1 mm 1 mps 477 mmHg 45%
    16:00 -2°C° 0.1 mm 1 mps 476 mmHg 49%
    17:00 -3°C° 0.1 mm 1 mps 476 mmHg 52%
    18:00 -4°C° 0 mm 1 mps 475 mmHg 52%
    19:00 -6°C° 0 mm 1 mps 475 mmHg 51%
    20:00 -8°C° 0 mm 2 mps 474 mmHg 51%
    21:00 -8°C° 0 mm 2 mps 474 mmHg 49%
    22:00 -8°C° 0 mm 2 mps 474 mmHg 48%
    23:00 -9°C° 0 mm 2 mps 474 mmHg 46%

    Day after tomorrow, 22 October, Monday

    Time Temperature Precipitation Wind Pressure Humidity
    00:00 -9°C° 0 mm 2 mps 473 mmHg 45%
    01:00 -9°C° 0 mm 2 mps 473 mmHg 44%
    02:00 -9°C° 0 mm 2 mps 473 mmHg 43%
    03:00 -9°C° 0 mm 2 mps 473 mmHg 42%
    04:00 -10°C° 0 mm 2 mps 473 mmHg 42%
    05:00 -10°C° 0 mm 2 mps 472 mmHg 41%
    06:00 -9°C° 0 mm 2 mps 473 mmHg 42%
    07:00 -8°C° 0 mm 2 mps 474 mmHg 42%
    08:00 -8°C° 0 mm 2 mps 474 mmHg 43%
    09:00 -6°C° 0 mm 2 mps 475 mmHg 39%
    10:00 -3°C° 0 mm 1 mps 476 mmHg 35%
    11:00 -1°C° 0 mm 1 mps 477 mmHg 31%
    12:00 -1°C° 0 mm 1 mps 476 mmHg 33%
    13:00 -1°C° 0 mm 1 mps 476 mmHg 35%
    14:00 -2°C° 0 mm 2 mps 476 mmHg 37%
    15:00 -3°C° 0 mm 2 mps 476 mmHg 40%
    16:00 -3°C° 0 mm 1 mps 475 mmHg 44%
    17:00 -4°C° 0 mm 1 mps 474 mmHg 48%
    18:00 -6°C° 0 mm 1 mps 473 mmHg 50%
    19:00 -7°C° 0 mm 1 mps 473 mmHg 51%
    20:00 -9°C° 0 mm 2 mps 472 mmHg 53%
    21:00 -9°C° 0 mm 2 mps 472 mmHg 53%
    22:00 -9°C° 0 mm 2 mps 472 mmHg 53%
    23:00 -9°C° 0 mm 2 mps 472 mmHg 53%

    23 October, Tuesday

    Time Temperature Precipitation Wind Pressure Humidity
    00:00 -10°C° 0 mm 2 mps 472 mmHg 53%
    01:00 -10°C° 0 mm 2 mps 472 mmHg 52%
    02:00 -10°C° 0 mm 2 mps 471 mmHg 52%
    03:00 -10°C° 0 mm 2 mps 471 mmHg 50%
    04:00 -10°C° 0 mm 2 mps 471 mmHg 49%
    05:00 -10°C° 0 mm 2 mps 471 mmHg 47%
    06:00 -10°C° 0 mm 2 mps 472 mmHg 46%
    07:00 -9°C° 0 mm 2 mps 472 mmHg 45%
    08:00 -8°C° 0 mm 2 mps 473 mmHg 44%
    09:00 -6°C° 0 mm 1 mps 474 mmHg 40%
    10:00 -3°C° 0 mm 1 mps 475 mmHg 36%
    11:00 -2°C° 0 mm 1 mps 476 mmHg 32%
    12:00 -3°C° 0 mm 2 mps 476 mmHg 33%
    13:00 -3°C° 0 mm 2 mps 476 mmHg 33%
    14:00 -2°C° 0 mm 2 mps 476 mmHg 34%
    15:00 -3°C° 0 mm 2 mps 475 mmHg 36%
    16:00 -3°C° 0 mm 1 mps 474 mmHg 38%
    17:00 -4°C° 0 mm 1 mps 474 mmHg 40%
    18:00 -6°C° 0 mm 1 mps 473 mmHg 41%
    19:00 -7°C° 0 mm 1 mps 473 mmHg 42%
    20:00 -7°C° 0 mm 1 mps 472 mmHg 43%
    21:00 -8°C° 0 mm 1 mps 472 mmHg 41%
    22:00 -9°C° 0 mm 2 mps 472 mmHg 40%
    23:00 -9°C° 0 mm 2 mps 472 mmHg 39%

    24 October, Wednesday

    Time Temperature Precipitation Wind Pressure Humidity
    00:00 -9°C° 0 mm 2 mps 472 mmHg 37%
    01:00 -9°C° 0 mm 2 mps 472 mmHg 35%
    02:00 -9°C° 0 mm 2 mps 472 mmHg 34%
    03:00 -9°C° 0 mm 2 mps 472 mmHg 33%
    04:00 -7°C° 0 mm 1 mps 472 mmHg 32%
    05:00 -7°C° 0 mm 1 mps 472 mmHg 31%
    06:00 -7°C° 0 mm 1 mps 472 mmHg 32%
    07:00 -6°C° 0 mm 1 mps 473 mmHg 32%
    08:00 -6°C° 0 mm 1 mps 474 mmHg 33%
    09:00 -3°C° 0 mm 1 mps 474 mmHg 30%
    10:00 -2°C° 0 mm 1 mps 475 mmHg 28%
    11:00 -1°C° 0 mm 1 mps 476 mmHg 26%
    12:00 -1°C° 0 mm 1 mps 476 mmHg 29%
    13:00 0°C° 0 mm 1 mps 476 mmHg 32%
    14:00 0°C° 0 mm 1 mps 476 mmHg 35%
    15:00 -1°C° 0 mm 1 mps 475 mmHg 39%
    16:00 -2°C° 0 mm 1 mps 475 mmHg 43%
    17:00 -3°C° 0 mm 1 mps 474 mmHg 48%
    18:00 -3°C° 0 mm 1 mps 474 mmHg 50%
    19:00 -4°C° 0 mm 1 mps 474 mmHg 52%
    20:00 -6°C° 0 mm 1 mps 474 mmHg 54%
    21:00 -6°C° 0 mm 1 mps 474 mmHg 55%
    22:00 -6°C° 0 mm 1 mps 474 mmHg 55%
    23:00 -7°C° 0 mm 2 mps 474 mmHg 56%

    25 October, Thursday

    Time Temperature Precipitation Wind Pressure Humidity
    00:00 -7°C° 0 mm 2 mps 473 mmHg 55%
    01:00 -8°C° 0 mm 2 mps 473 mmHg 55%
    02:00 -8°C° 0 mm 2 mps 473 mmHg 54%
    03:00 -8°C° 0 mm 2 mps 473 mmHg 53%
    04:00 -8°C° 0 mm 2 mps 473 mmHg 53%
    05:00 -8°C° 0 mm 2 mps 473 mmHg 52%
    06:00 -8°C° 0 mm 2 mps 473 mmHg 51%
    07:00 -7°C° 0 mm 2 mps 474 mmHg 50%
    08:00 -4°C° 0 mm 1 mps 475 mmHg 50%
    09:00 -3°C° 0 mm 1 mps 476 mmHg 48%
    10:00 -2°C° 0 mm 1 mps 476 mmHg 46%
    11:00 0°C° 0 mm 1 mps 477 mmHg 44%
    12:00 0°C° 0 mm 1 mps 477 mmHg 46%
    13:00 0°C° 0 mm 1 mps 477 mmHg 49%
    14:00 -2°C° 0 mm 2 mps 477 mmHg 51%
    15:00 -1°C° 0.1 mm 1 mps 477 mmHg 56%
    16:00 -1°C° 0.1 mm 1 mps 476 mmHg 60%
    17:00 -2°C° 0.1 mm 1 mps 476 mmHg 65%
    18:00 -3°C° 0 mm 1 mps 476 mmHg 67%
    19:00 -3°C° 0 mm 1 mps 475 mmHg 68%
    20:00 -4°C° 0 mm 1 mps 475 mmHg 70%
    21:00 -4°C° 0 mm 1 mps 475 mmHg 71%
    22:00 -4°C° 0 mm 1 mps 475 mmHg 72%
    23:00 -6°C° 0 mm 2 mps 475 mmHg 72%
    Show more